| time (UTC) | temp C | wind direction | speed KPH | gust KPH | rain 1hr cm | rain 24hr cm | rain mn cm | humidity % | barometer mb |
| 20260505072636 | 19 | 172 | 0.0 | 3.2 | 0.00 | 0.00 | 0.00 | 58 | 1007.2 |
| 20260505072133 | 19 | 201 | 0.0 | 3.2 | 0.00 | 0.00 | 0.00 | 58 | 1007.0 |
| 20260505071628 | 19 | 152 | 3.2 | 4.8 | 0.00 | 0.00 | 0.00 | 57 | 1007.3 |
| 20260505071126 | 19 | 188 | 3.2 | 6.4 | 0.00 | 0.00 | 0.00 | 57 | 1006.8 |
| 20260505070623 | 19 | 168 | 3.2 | 4.8 | 0.00 | 0.00 | 0.00 | 57 | 1006.9 |
| 20260505070119 | 19 | 183 | 3.2 | 9.7 | 0.00 | 0.00 | 0.00 | 56 | 1006.9 |
| 20260505065616 | 19 | 206 | 3.2 | 4.8 | 0.00 | 0.00 | 0.00 | 57 | 1006.8 |
| 20260505065112 | 19 | 213 | 6.4 | 11.3 | 0.00 | 0.00 | 0.00 | 56 | 1006.9 |
| 20260505064609 | 20 | 208 | 1.6 | 11.3 | 0.00 | 0.00 | 0.00 | 56 | 1006.7 |
| 20260505064108 | 20 | 178 | 3.2 | 6.4 | 0.00 | 0.00 | 0.00 | 56 | 1006.7 |
| 20260505063605 | 20 | 164 | 8.0 | 11.3 | 0.00 | 0.00 | 0.00 | 56 | 1006.6 |
| 20260505063100 | 20 | 177 | 9.7 | 11.3 | 0.00 | 0.00 | 0.00 | 55 | 1006.7 |
| 20260505062557 | 20 | 221 | 3.2 | 11.3 | 0.00 | 0.00 | 0.00 | 55 | 1006.9 |
| 20260505062054 | 20 | 284 | 1.6 | 4.8 | 0.00 | 0.00 | 0.00 | 55 | 1006.6 |
| 20260505061552 | 20 | 174 | 8.0 | 14.5 | 0.00 | 0.00 | 0.00 | 55 | 1006.6 |
| 20260505061050 | 20 | 181 | 3.2 | 9.7 | 0.00 | 0.00 | 0.00 | 55 | 1006.7 |
| 20260505060547 | 20 | 187 | 6.4 | 11.3 | 0.00 | 0.00 | 0.00 | 55 | 1006.5 |
| 20260505060044 | 20 | 191 | 9.7 | 12.9 | 0.00 | 0.00 | 0.00 | 54 | 1006.5 |
| 20260505055539 | 20 | 201 | 1.6 | 6.4 | 0.00 | 0.00 | 0.00 | 55 | 1006.5 |
| 20260505055036 | 20 | 190 | 6.4 | 11.3 | 0.00 | 0.00 | 0.00 | 55 | 1006.2 |
| 20260505054533 | 20 | 188 | 3.2 | 6.4 | 0.00 | 0.00 | 0.00 | 54 | 1006.2 |
| 20260505054031 | 20 | 181 | 4.8 | 9.7 | 0.00 | 0.00 | 0.00 | 54 | 1006.2 |
| 20260505053528 | 20 | 211 | 3.2 | 12.9 | 0.00 | 0.00 | 0.00 | 53 | 1006.1 |
| 20260505053025 | 20 | 147 | 6.4 | 14.5 | 0.00 | 0.00 | 0.00 | 53 | 1006.0 |
| 20260505052522 | 20 | 177 | 6.4 | 9.7 | 0.00 | 0.00 | 0.00 | 53 | 1005.9 |
| 20260505052019 | 21 | 194 | 4.8 | 17.7 | 0.00 | 0.00 | 0.00 | 52 | 1006.0 |
| 20260505051516 | 20 | 180 | 6.4 | 12.9 | 0.00 | 0.00 | 0.00 | 52 | 1005.9 |
| 20260505051014 | 20 | 170 | 6.4 | 9.7 | 0.00 | 0.00 | 0.00 | 53 | 1006.2 |
| 20260505050512 | 20 | 186 | 6.4 | 6.4 | 0.00 | 0.00 | 0.00 | 53 | 1006.1 |
| 20260505041439 | 20 | 177 | 6.4 | 16.1 | 0.00 | 0.00 | 0.00 | 54 | 1006.5 |
| 20260505040937 | 20 | 154 | 4.8 | 6.4 | 0.00 | 0.00 | 0.00 | 55 | 1006.7 |
| 20260505040434 | 21 | 179 | 1.6 | 11.3 | 0.00 | 0.00 | 0.00 | 55 | 1006.5 |
| 20260505035931 | 21 | 158 | 6.4 | 12.9 | 0.00 | 0.00 | 0.00 | 55 | 1006.7 |
| 20260505035427 | 21 | 170 | 6.4 | 9.7 | 0.00 | 0.00 | 0.00 | 55 | 1006.7 |
| 20260505034924 | 21 | 174 | 6.4 | 9.7 | 0.00 | 0.00 | 0.00 | 55 | 1006.8 |
| 20260505034420 | 21 | 190 | 3.2 | 14.5 | 0.00 | 0.00 | 0.00 | 55 | 1006.8 |
| 20260505033917 | 21 | 200 | 1.6 | 6.4 | 0.00 | 0.00 | 0.00 | 55 | 1006.9 |
| 20260505033414 | 20 | 205 | 1.6 | 6.4 | 0.00 | 0.00 | 0.00 | 56 | 1006.7 |
| 20260505032913 | 20 | 174 | 4.8 | 6.4 | 0.00 | 0.00 | 0.00 | 56 | 1006.9 |
| 20260505032409 | 21 | 252 | 1.6 | 4.8 | 0.00 | 0.00 | 0.00 | 56 | 1006.9 |
| 20260505031906 | 20 | 181 | 3.2 | 9.7 | 0.00 | 0.00 | 0.00 | 56 | 1006.7 |
| 20260505031403 | 20 | 138 | 6.4 | 6.4 | 0.00 | 0.00 | 0.00 | 56 | 1006.8 |
| 20260505030900 | 21 | 194 | 1.6 | 6.4 | 0.00 | 0.00 | 0.00 | 56 | 1006.8 |
| 20260505030355 | 20 | 187 | 3.2 | 9.7 | 0.00 | 0.00 | 0.00 | 56 | 1006.7 |
| 20260505025851 | 20 | 160 | 1.6 | 6.4 | 0.00 | 0.00 | 0.00 | 56 | 1006.6 |
| 20260505025349 | 20 | 165 | 1.6 | 6.4 | 0.00 | 0.00 | 0.00 | 56 | 1006.6 |
| 20260505024848 | 20 | 207 | 3.2 | 4.8 | 0.00 | 0.00 | 0.00 | 56 | 1006.5 |
| 20260505024345 | 21 | 195 | 1.6 | 4.8 | 0.00 | 0.00 | 0.00 | 56 | 1006.4 |
| 20260505023842 | 20 | 178 | 3.2 | 9.7 | 0.00 | 0.00 | 0.00 | 57 | 1006.3 |
| 20260505023339 | 20 | 192 | 3.2 | 3.2 | 0.00 | 0.00 | 0.00 | 57 | 1006.2 |
| 20260505022836 | 20 | 152 | 3.2 | 6.4 | 0.00 | 0.00 | 0.00 | 58 | 1006.2 |
| 20260505022333 | 20 | 160 | 3.2 | 9.7 | 0.00 | 0.00 | 0.00 | 59 | 1006.2 |
| 20260505021830 | 20 | 176 | 3.2 | 4.8 | 0.00 | 0.00 | 0.00 | 58 | 1006.1 |
| 20260505021326 | 20 | 171 | 1.6 | 3.2 | 0.00 | 0.00 | 0.00 | 59 | 1006.1 |
| 20260505020822 | 20 | 170 | 3.2 | 6.4 | 0.00 | 0.00 | 0.00 | 59 | 1006.0 |
| 20260505020318 | 20 | 145 | 0.0 | 3.2 | 0.00 | 0.00 | 0.00 | 60 | 1005.8 |
| 20260505015815 | 20 | 188 | 3.2 | 4.8 | 0.00 | 0.00 | 0.00 | 60 | 1005.7 |
| 20260505015312 | 20 | 172 | 0.0 | 0.0 | 0.00 | 0.00 | 0.00 | 60 | 1005.7 |
| 20260505014810 | 20 | 172 | 1.6 | 1.6 | 0.00 | 0.00 | 0.00 | 59 | 1005.6 |
| 20260505014307 | 20 | 160 | 1.6 | 3.2 | 0.00 | 0.00 | 0.00 | 58 | 1005.8 |
| 20260505013803 | 20 | 168 | 1.6 | 3.2 | 0.00 | 0.00 | 0.00 | 58 | 1005.8 |
| 20260505013300 | 20 | 178 | 1.6 | 3.2 | 0.00 | 0.00 | 0.00 | 58 | 1005.6 |
| 20260505012759 | 20 | 145 | 1.6 | 4.8 | 0.00 | 0.00 | 0.00 | 57 | 1005.5 |
| 20260505012256 | 21 | 200 | 3.2 | 4.8 | 0.00 | 0.00 | 0.00 | 57 | 1005.6 |
| 20260505011751 | 21 | 180 | 0.0 | 1.6 | 0.00 | 0.00 | 0.00 | 57 | 1005.6 |
| 20260505011248 | 21 | 164 | 1.6 | 4.8 | 0.00 | 0.00 | 0.00 | 56 | 1005.5 |
| 20260505010744 | 21 | 175 | 3.2 | 3.2 | 0.00 | 0.00 | 0.00 | 56 | 1005.4 |
| 20260505010241 | 21 | 168 | 3.2 | 4.8 | 0.00 | 0.00 | 0.00 | 55 | 1005.5 |
| 20260505005737 | 21 | 175 | 0.0 | 0.0 | 0.00 | 0.00 | 0.00 | 55 | 1005.6 |
| 20260505005234 | 21 | 139 | 3.2 | 3.2 | 0.00 | 0.00 | 0.00 | 54 | 1005.5 |
| 20260505004731 | 21 | 158 | 3.2 | 3.2 | 0.00 | 0.00 | 0.00 | 54 | 1005.4 |
| 20260505004227 | 22 | 153 | 3.2 | 3.2 | 0.00 | 0.00 | 0.00 | 52 | 1005.6 |
| 20260505003725 | 22 | 160 | 0.0 | 4.8 | 0.00 | 0.00 | 0.00 | 52 | 1005.7 |
| 20260505003223 | 22 | 173 | 3.2 | 4.8 | 0.00 | 0.00 | 0.00 | 51 | 1005.5 |
| 20260505002718 | 22 | 173 | 3.2 | 3.2 | 0.00 | 0.00 | 0.00 | 52 | 1005.4 |
| 20260505002216 | 22 | 179 | 6.4 | 6.4 | 0.00 | 0.00 | 0.00 | 51 | 1005.3 |
| 20260505001714 | 22 | 174 | 1.6 | 4.8 | 0.00 | 0.00 | 0.00 | 51 | 1005.5 |
| 20260505001211 | 22 | 196 | 4.8 | 9.7 | 0.00 | 0.00 | 0.00 | 50 | 1005.7 |
| 20260505000708 | 22 | 184 | 1.6 | 11.3 | 0.00 | 0.00 | 0.00 | 50 | 1005.6 |
| 20260505000206 | 22 | 189 | 3.2 | 3.2 | 0.00 | 0.00 | 0.00 | 49 | 1005.6 |
| 20260504235702 | 23 | 185 | 1.6 | 12.9 | 0.00 | 0.00 | 0.00 | 48 | 1005.7 |
| 20260504235158 | 23 | 143 | 4.8 | 9.7 | 0.00 | 0.00 | 0.00 | 48 | 1005.7 |
| 20260504234656 | 23 | 218 | 3.2 | 4.8 | 0.00 | 0.00 | 0.00 | 47 | 1005.7 |
| 20260504234153 | 23 | 186 | 6.4 | 9.7 | 0.00 | 0.00 | 0.00 | 46 | 1005.8 |
| 20260504233648 | 23 | 196 | 0.0 | 3.2 | 0.00 | 0.00 | 0.00 | 46 | 1006.1 |
| 20260504233144 | 23 | 141 | 1.6 | 9.7 | 0.00 | 0.00 | 0.00 | 45 | 1006.0 |
| 20260504232643 | 23 | 199 | 1.6 | 6.4 | 0.00 | 0.00 | 0.00 | 45 | 1006.1 |
| 20260504232139 | 23 | 169 | 6.4 | 9.7 | 0.00 | 0.00 | 0.00 | 44 | 1006.1 |
| 20260504231636 | 23 | 189 | 4.8 | 17.7 | 0.00 | 0.00 | 0.00 | 44 | 1006.0 |
| 20260504231132 | 24 | 163 | 4.8 | 11.3 | 0.00 | 0.00 | 0.00 | 43 | 1006.2 |
| 20260504230628 | 24 | 137 | 11.3 | 16.1 | 0.00 | 0.00 | 0.00 | 43 | 1006.0 |
| 20260504230127 | 24 | 212 | 4.8 | 12.9 | 0.00 | 0.00 | 0.00 | 43 | 1006.1 |
| 20260504225625 | 24 | 182 | 4.8 | 24.1 | 0.00 | 0.00 | 0.00 | 43 | 1006.1 |
| 20260504225121 | 24 | 208 | 12.9 | 17.7 | 0.00 | 0.00 | 0.00 | 44 | 1006.2 |
| 20260504224618 | 24 | 163 | 8.0 | 12.9 | 0.00 | 0.00 | 0.00 | 45 | 1006.1 |
| 20260504224115 | 23 | 197 | 4.8 | 9.7 | 0.00 | 0.00 | 0.00 | 48 | 1006.2 |
| 20260504223612 | 23 | 171 | 8.0 | 11.3 | 0.00 | 0.00 | 0.00 | 49 | 1006.3 |
| 20260504223108 | 23 | 121 | 4.8 | 6.4 | 0.00 | 0.00 | 0.00 | 51 | 1006.2 |
| 20260504222605 | 23 | 155 | 6.4 | 9.7 | 0.00 | 0.00 | 0.00 | 49 | 1006.3 |
| 20260504222102 | 23 | 208 | 3.2 | 9.7 | 0.00 | 0.00 | 0.00 | 50 | 1006.4 |
| 20260504221559 | 23 | 195 | 3.2 | 3.2 | 0.00 | 0.00 | 0.00 | 49 | 1006.6 |
| 20260504221055 | 23 | 176 | 0.0 | 4.8 | 0.00 | 0.00 | 0.00 | 49 | 1006.7 |
| 20260504220552 | 23 | 153 | 3.2 | 4.8 | 0.00 | 0.00 | 0.00 | 50 | 1006.5 |
| 20260504220049 | 23 | 199 | 3.2 | 11.3 | 0.00 | 0.00 | 0.00 | 48 | 1006.6 |
| 20260504215546 | 23 | 199 | 3.2 | 4.8 | 0.00 | 0.00 | 0.00 | 49 | 1006.5 |
| 20260504215043 | 23 | 188 | 3.2 | 4.8 | 0.00 | 0.00 | 0.00 | 48 | 1006.5 |
| 20260504214539 | 23 | 152 | 6.4 | 11.3 | 0.00 | 0.00 | 0.00 | 49 | 1006.7 |
| 20260504214036 | 23 | 213 | 0.0 | 4.8 | 0.00 | 0.00 | 0.00 | 47 | 1006.9 |
| 20260504213532 | 23 | 214 | 3.2 | 4.8 | 0.00 | 0.00 | 0.00 | 47 | 1007.0 |
| 20260504213030 | 23 | 210 | 4.8 | 6.4 | 0.00 | 0.00 | 0.00 | 46 | 1007.2 |
| 20260504212525 | 23 | 293 | 1.6 | 1.6 | 0.00 | 0.00 | 0.00 | 48 | 1007.2 |
| 20260504212023 | 24 | 187 | 4.8 | 9.7 | 0.00 | 0.00 | 0.00 | 46 | 1007.3 |
| 20260504211520 | 24 | 315 | 3.2 | 3.2 | 0.00 | 0.00 | 0.00 | 47 | 1007.4 |
| 20260504211017 | 23 | 56 | 0.0 | 3.2 | 0.00 | 0.00 | 0.00 | 46 | 1007.5 |
| 20260504210514 | 23 | 189 | 4.8 | 11.3 | 0.00 | 0.00 | 0.00 | 48 | 1007.4 |
| 20260504210010 | 23 | 210 | 3.2 | 9.7 | 0.00 | 0.00 | 0.00 | 48 | 1007.6 |
| 20260504205508 | 24 | 317 | 1.6 | 6.4 | 0.00 | 0.00 | 0.00 | 50 | 1007.6 |
| 20260504205006 | 24 | 216 | 4.8 | 4.8 | 0.00 | 0.00 | 0.00 | 48 | 1007.6 |
| 20260504204504 | 23 | 217 | 3.2 | 6.4 | 0.00 | 0.00 | 0.00 | 49 | 1007.7 |
| 20260504204003 | 23 | 196 | 4.8 | 12.9 | 0.00 | 0.00 | 0.00 | 49 | 1007.9 |
| 20260504203500 | 24 | 273 | 3.2 | 6.4 | 0.00 | 0.00 | 0.00 | 48 | 1007.9 |
| 20260504202956 | 24 | 188 | 6.4 | 9.7 | 0.00 | 0.00 | 0.00 | 46 | 1007.9 |
| 20260504202452 | 25 | 235 | 0.0 | 4.8 | 0.00 | 0.00 | 0.00 | 48 | 1008.0 |
| 20260504201949 | 23 | 221 | 3.2 | 11.3 | 0.00 | 0.00 | 0.00 | 50 | 1008.0 |
| 20260504201447 | 23 | 232 | 1.6 | 3.2 | 0.00 | 0.00 | 0.00 | 50 | 1008.4 |
| 20260504200944 | 23 | 224 | 0.0 | 9.7 | 0.00 | 0.00 | 0.00 | 51 | 1008.1 |
| 20260504200441 | 23 | 169 | 1.6 | 3.2 | 0.00 | 0.00 | 0.00 | 50 | 1008.2 |
| 20260504195937 | 23 | 190 | 3.2 | 12.9 | 0.00 | 0.00 | 0.00 | 50 | 1008.3 |
| 20260504195433 | 23 | 159 | 3.2 | 11.3 | 0.00 | 0.00 | 0.00 | 50 | 1008.5 |
| 20260504194930 | 23 | 156 | 6.4 | 11.3 | 0.00 | 0.00 | 0.00 | 51 | 1008.4 |
| 20260504194426 | 23 | 141 | 11.3 | 14.5 | 0.00 | 0.00 | 0.00 | 50 | 1008.3 |
| 20260504193922 | 23 | 287 | 4.8 | 4.8 | 0.00 | 0.00 | 0.00 | 52 | 1008.6 |
| 20260504193420 | 22 | 292 | 1.6 | 4.8 | 0.00 | 0.00 | 0.00 | 54 | 1008.5 |
| 20260504192918 | 22 | 152 | 6.4 | 11.3 | 0.00 | 0.00 | 0.00 | 56 | 1008.7 |
| 20260504192415 | 22 | 288 | 0.0 | 1.6 | 0.00 | 0.00 | 0.00 | 59 | 1009.0 |
| 20260504191914 | 21 | 216 | 1.6 | 3.2 | 0.00 | 0.00 | 0.00 | 59 | 1009.0 |
| 20260504191411 | 21 | 191 | 3.2 | 3.2 | 0.00 | 0.00 | 0.00 | 60 | 1008.9 |
| 20260504190906 | 20 | 349 | 0.0 | 1.6 | 0.00 | 0.00 | 0.00 | 62 | 1009.1 |
| 20260504190403 | 20 | 294 | 3.2 | 4.8 | 0.00 | 0.00 | 0.00 | 62 | 1009.5 |
| 20260504185859 | 20 | 179 | 1.6 | 3.2 | 0.00 | 0.00 | 0.00 | 64 | 1009.2 |
| 20260504185357 | 20 | 164 | 1.6 | 3.2 | 0.00 | 0.00 | 0.00 | 64 | 1009.1 |
| 20260504184852 | 20 | 183 | 0.0 | 1.6 | 0.00 | 0.00 | 0.00 | 64 | 1009.4 |
| 20260504184348 | 20 | 204 | 3.2 | 6.4 | 0.00 | 0.00 | 0.00 | 62 | 1009.5 |
| 20260504183844 | 20 | 286 | 0.0 | 4.8 | 0.00 | 0.00 | 0.00 | 60 | 1009.5 |
| 20260504183342 | 20 | 217 | 1.6 | 3.2 | 0.00 | 0.00 | 0.00 | 61 | 1009.4 |
| 20260504182839 | 20 | 178 | 3.2 | 4.8 | 0.00 | 0.00 | 0.00 | 60 | 1009.4 |
| 20260504182337 | 20 | 276 | 4.8 | 11.3 | 0.00 | 0.00 | 0.00 | 59 | 1009.5 |
| 20260504181833 | 20 | 222 | 4.8 | 12.9 | 0.00 | 0.00 | 0.00 | 59 | 1009.3 |
| 20260504181331 | 20 | 159 | 11.3 | 14.5 | 0.00 | 0.00 | 0.00 | 58 | 1009.2 |
| 20260504180830 | 21 | 188 | 3.2 | 6.4 | 0.00 | 0.00 | 0.00 | 58 | 1009.0 |
| 20260504180328 | 21 | 312 | 4.8 | 9.7 | 0.00 | 0.00 | 0.00 | 56 | 1009.0 |
| 20260504175826 | 21 | 185 | 6.4 | 11.3 | 0.00 | 0.00 | 0.00 | 56 | 1009.0 |
| 20260504175322 | 21 | 141 | 3.2 | 11.3 | 0.00 | 0.00 | 0.00 | 58 | 1008.5 |
| 20260504174821 | 21 | 174 | 6.4 | 9.7 | 0.00 | 0.00 | 0.00 | 57 | 1008.4 |
| 20260504174318 | 21 | 199 | 6.4 | 17.7 | 0.00 | 0.00 | 0.00 | 56 | 1008.4 |
| 20260504173814 | 21 | 178 | 11.3 | 16.1 | 0.00 | 0.00 | 0.00 | 56 | 1008.2 |
| 20260504173311 | 21 | 177 | 4.8 | 9.7 | 0.00 | 0.00 | 0.00 | 57 | 1008.6 |
| 20260504172808 | 21 | 166 | 4.8 | 9.7 | 0.00 | 0.00 | 0.00 | 57 | 1008.5 |
| 20260504172305 | 21 | 169 | 6.4 | 12.9 | 0.00 | 0.00 | 0.00 | 57 | 1008.7 |
| 20260504171800 | 21 | 185 | 6.4 | 11.3 | 0.00 | 0.00 | 0.00 | 61 | 1008.6 |
| 20260504171258 | 21 | 205 | 3.2 | 6.4 | 0.00 | 0.00 | 0.00 | 58 | 1008.8 |
| 20260504170755 | 20 | 214 | 3.2 | 4.8 | 0.00 | 0.00 | 0.00 | 60 | 1008.6 |
| 20260504170252 | 20 | 166 | 8.0 | 12.9 | 0.00 | 0.00 | 0.00 | 60 | 1008.4 |
| 20260504160210 | 18 | 196 | 3.2 | 3.2 | 0.00 | 0.00 | 0.00 | 62 | 1009.5 |
| 20260504151138 | 17 | 184 | 1.6 | 11.3 | 0.00 | 0.00 | 0.00 | 63 | 1009.5 |
| 20260504150636 | 17 | 204 | 0.0 | 4.8 | 0.00 | 0.00 | 0.00 | 63 | 1009.6 |
| 20260504150132 | 17 | 162 | 3.2 | 4.8 | 0.00 | 0.00 | 0.00 | 64 | 1009.6 |
| 20260504141101 | 16 | 173 | 4.8 | 9.7 | 0.00 | 0.00 | 0.00 | 64 | 1009.7 |
| 20260504140557 | 16 | 178 | 1.6 | 11.3 | 0.00 | 0.00 | 0.00 | 65 | 1009.7 |
| 20260504130522 | 14 | 196 | 4.8 | 6.4 | 0.00 | 0.00 | 0.00 | 69 | 1009.7 |
| 20260504110409 | 12 | 211 | 3.2 | 6.4 | 0.00 | 0.00 | 0.00 | 64 | 1009.9 |
| 20260504100331 | 11 | 168 | 0.0 | 1.6 | 0.00 | 0.00 | 0.00 | 68 | 1010.2 |
| 20260504081725 | 12 | 176 | 1.6 | 4.8 | 0.00 | 0.00 | 0.00 | 60 | 1010.9 |
| 20260504081221 | 12 | 164 | 1.6 | 3.2 | 0.00 | 0.00 | 0.00 | 59 | 1010.6 |
| 20260504080718 | 12 | 181 | 4.8 | 6.4 | 0.00 | 0.00 | 0.00 | 59 | 1011.0 |
| 20260504080214 | 12 | 159 | 3.2 | 6.4 | 0.00 | 0.00 | 0.00 | 60 | 1010.9 |